Location: Glencliff
(36.1226°N, 86.7183°W)
Time: 16:20:07
(UTC+00:00)

SL-16 R/B - Pass Details

Date: 25 August 2019
Orbit: 842 x 848 km, 71.0° (Epoch: 17 September)

Event Time Altitude Azimuth Distance (km) Brightness Sun altitude
Rises 08:55:23 0° 325° (NW) 3,407 5.4 -25.8°
Reaches altitude 10° 08:58:09 10° 314° (NW) 2,469 4.5 -25.3°
Enters shadow 08:58:42 12° 311° (NW) 2,302 4.3 -25.3°
